PGT867T LTFJ-LTFE

Flight info

Callsign PGT867T
Flight time N/A
Altitude 32000
Route ROXUK1J/06L ROXUK T409 NUMTI DCT KULAR T44 KAVAK
Aircraft A321/M-SDE3FGHIRWY/LB1

Departure

Time 2026-04-29 14:44
Airport Istanbul Sabiha Gökçen International Airport (LTFJ)

Arrival

Time N/A
Airport Milas Bodrum International Airport (LTFE)
Time Latitude Longitude Altitude Speed Heading
2026-04-29 14:21 40.90893 29.31891 311 ft 0 kts 244°
2026-04-29 14:33 40.90904 29.31917 311 ft 4 kts 226°
2026-04-29 14:33 40.90925 29.31936 310 ft 4 kts 190°
2026-04-29 14:33 40.90948 29.31934 309 ft 2 kts 155°
2026-04-29 14:33 40.90949 29.31934 309 ft 0 kts 154°
2026-04-29 14:36 40.90919 29.31952 309 ft 8 kts 155°
2026-04-29 14:36 40.90872 29.31984 311 ft 7 kts 147°
2026-04-29 14:37 40.90837 29.32040 311 ft 9 kts 126°
2026-04-29 14:37 40.90791 29.32086 309 ft 8 kts 151°
2026-04-29 14:37 40.90744 29.32116 311 ft 8 kts 154°
2026-04-29 14:37 40.90693 29.32093 310 ft 8 kts 233°
2026-04-29 14:38 40.90666 29.32025 311 ft 10 kts 244°
2026-04-29 14:38 40.90632 29.31947 311 ft 9 kts 226°
2026-04-29 14:38 40.90575 29.31942 311 ft 9 kts 159°
2026-04-29 14:38 40.90523 29.31975 311 ft 8 kts 154°
2026-04-29 14:39 40.90457 29.31965 311 ft 10 kts 221°
2026-04-29 14:39 40.90417 29.31874 311 ft 14 kts 244°
2026-04-29 14:39 40.90365 29.31734 311 ft 20 kts 244°
2026-04-29 14:39 40.90299 29.31556 311 ft 21 kts 244°
2026-04-29 14:40 40.90235 29.31382 310 ft 21 kts 244°
2026-04-29 14:40 40.90172 29.31211 311 ft 21 kts 244°
2026-04-29 14:40 40.90106 29.31030 311 ft 23 kts 244°
2026-04-29 14:40 40.90038 29.30847 310 ft 24 kts 244°
2026-04-29 14:41 40.89965 29.30648 311 ft 24 kts 244°
2026-04-29 14:41 40.89892 29.30451 311 ft 25 kts 244°
2026-04-29 14:41 40.89811 29.30230 310 ft 27 kts 244°
2026-04-29 14:41 40.89733 29.30018 309 ft 25 kts 244°
2026-04-29 14:42 40.89658 29.29814 308 ft 25 kts 244°
2026-04-29 14:42 40.89589 29.29628 305 ft 20 kts 243°
2026-04-29 14:42 40.89529 29.29467 302 ft 19 kts 245°
2026-04-29 14:42 40.89488 29.29353 306 ft 12 kts 244°
2026-04-29 14:43 40.89440 29.29267 303 ft 11 kts 213°
2026-04-29 14:43 40.89371 29.29268 305 ft 12 kts 157°
2026-04-29 14:43 40.89300 29.29328 301 ft 12 kts 129°
2026-04-29 14:43 40.89296 29.29407 305 ft 8 kts 66°
2026-04-29 14:44 40.89363 29.29586 308 ft 52 kts 64°
2026-04-29 14:44 40.89620 29.30286 310 ft 115 kts 64°
2026-04-29 14:44 40.90032 29.31426 398 ft 151 kts 64°
2026-04-29 14:44 40.90457 29.32639 1108 ft 144 kts 64°
2026-04-29 14:45 40.90896 29.33828 1797 ft 144 kts 64°
2026-04-29 14:45 40.91348 29.35044 2346 ft 155 kts 64°
2026-04-29 14:45 40.91856 29.36417 2674 ft 177 kts 65°
2026-04-29 14:45 40.92432 29.37969 2954 ft 199 kts 64°
2026-04-29 14:46 40.93077 29.39709 3176 ft 223 kts 64°
2026-04-29 14:46 40.93459 29.41023 3380 ft 242 kts 80°
2026-04-29 14:46 40.93053 29.44041 4277 ft 262 kts 116°
2026-04-29 14:46 40.91869 29.45899 5150 ft 271 kts 144°
2026-04-29 14:47 40.90741 29.46626 5730 ft 276 kts 164°
2026-04-29 14:47 40.88824 29.47124 6595 ft 284 kts 170°
2026-04-29 14:47 40.86857 29.47600 7415 ft 289 kts 170°
2026-04-29 14:47 40.84872 29.48092 8258 ft 293 kts 171°
2026-04-29 14:48 40.82858 29.48598 9130 ft 296 kts 171°
2026-04-29 14:48 40.80820 29.49111 9954 ft 300 kts 172°
2026-04-29 14:48 40.78718 29.49639 10402 ft 318 kts 172°
2026-04-29 14:48 40.76461 29.50202 10638 ft 341 kts 172°
2026-04-29 14:49 40.74089 29.50797 11156 ft 352 kts 172°
2026-04-29 14:49 40.71673 29.51409 11919 ft 355 kts 172°
2026-04-29 14:49 40.69202 29.52032 12726 ft 358 kts 172°
2026-04-29 14:49 40.66781 29.52640 13532 ft 360 kts 172°
2026-04-29 14:50 40.64276 29.53268 14284 ft 363 kts 172°
2026-04-29 14:50 40.61811 29.53885 14937 ft 367 kts 172°
2026-04-29 14:50 40.59253 29.54519 15604 ft 372 kts 173°
2026-04-29 14:50 40.56732 29.55141 16251 ft 376 kts 173°
2026-04-29 14:51 40.54146 29.55780 16915 ft 380 kts 173°
2026-04-29 14:51 40.51530 29.56432 17570 ft 385 kts 173°
2026-04-29 14:51 40.48882 29.57095 18191 ft 389 kts 173°
2026-04-29 14:51 40.46209 29.57763 18755 ft 393 kts 173°
2026-04-29 14:52 40.43508 29.58434 19292 ft 397 kts 173°
2026-04-29 14:52 40.40784 29.59107 19831 ft 400 kts 173°
2026-04-29 14:52 40.38042 29.59784 20368 ft 403 kts 173°
2026-04-29 14:52 40.35274 29.60472 20911 ft 406 kts 173°
2026-04-29 14:53 40.32483 29.61166 21437 ft 410 kts 173°
2026-04-29 14:53 40.29677 29.61863 21982 ft 413 kts 173°
2026-04-29 14:53 40.26839 29.62563 22513 ft 416 kts 173°
2026-04-29 14:53 40.23986 29.63267 23020 ft 419 kts 173°
2026-04-29 14:54 40.21108 29.63977 23533 ft 422 kts 173°
2026-04-29 14:54 40.18211 29.64694 23958 ft 425 kts 173°
2026-04-29 14:54 40.15294 29.65414 24381 ft 428 kts 173°
2026-04-29 14:54 40.12348 29.66141 24789 ft 432 kts 173°
2026-04-29 14:55 40.09390 29.66870 25204 ft 435 kts 173°
2026-04-29 14:55 40.06411 29.67602 25620 ft 437 kts 173°
2026-04-29 14:55 40.03412 29.68336 26026 ft 440 kts 173°
2026-04-29 14:55 40.00390 29.69071 26439 ft 443 kts 173°
2026-04-29 14:56 39.97349 29.69810 26841 ft 446 kts 173°
2026-04-29 14:56 39.94291 29.70471 27227 ft 446 kts 179°
2026-04-29 14:56 39.91202 29.70549 27605 ft 443 kts 188°
2026-04-29 14:56 39.88168 29.69945 27941 ft 440 kts 198°
2026-04-29 14:57 39.85279 29.68698 28048 ft 435 kts 208°
2026-04-29 14:57 39.80072 29.64853 28059 ft 429 kts 216°
2026-04-29 14:58 39.74950 29.60842 28054 ft 430 kts 215°
2026-04-29 14:58 39.69819 29.56854 28058 ft 430 kts 215°
2026-04-29 14:59 39.64685 29.52875 28050 ft 430 kts 215°
2026-04-29 14:59 39.59638 29.48755 28052 ft 428 kts 217°
2026-04-29 15:00 39.54693 29.44440 28037 ft 428 kts 218°
2026-04-29 15:00 39.49756 29.40125 28048 ft 428 kts 218°
2026-04-29 15:01 39.44779 29.35863 28028 ft 428 kts 217°
2026-04-29 15:01 39.39786 29.31648 28044 ft 429 kts 217°
2026-04-29 15:02 39.34796 29.27425 28049 ft 429 kts 217°
2026-04-29 15:02 39.29806 29.23186 28041 ft 429 kts 217°
2026-04-29 15:03 39.24821 29.18960 28042 ft 429 kts 217°
2026-04-29 15:03 39.19825 29.14751 28043 ft 429 kts 217°
2026-04-29 15:04 39.14829 29.10543 28039 ft 429 kts 217°
2026-04-29 15:04 39.09836 29.06330 28041 ft 429 kts 217°
2026-04-29 15:05 39.04833 29.02117 28039 ft 429 kts 217°
2026-04-29 15:05 38.99832 28.97910 28035 ft 429 kts 216°
2026-04-29 15:06 38.94829 28.93719 28035 ft 430 kts 216°
2026-04-29 15:06 38.89823 28.89528 28030 ft 430 kts 216°
2026-04-29 15:07 38.84811 28.85342 28033 ft 430 kts 216°
2026-04-29 15:07 38.79783 28.81165 28030 ft 430 kts 216°
2026-04-29 15:08 38.74757 28.76983 28031 ft 430 kts 216°
2026-04-29 15:08 38.69730 28.72818 28033 ft 430 kts 216°
2026-04-29 15:09 38.64706 28.68653 28034 ft 430 kts 216°
2026-04-29 15:09 38.59437 28.64978 28031 ft 436 kts 202°
2026-04-29 15:10 38.53429 28.63689 28035 ft 444 kts 181°
2026-04-29 15:10 38.47242 28.64195 28035 ft 446 kts 179°
2026-04-29 15:11 38.41058 28.64707 28035 ft 445 kts 179°
2026-04-29 15:11 38.34923 28.65204 27872 ft 432 kts 179°
2026-04-29 15:11 38.31950 28.65449 27608 ft 425 kts 179°
2026-04-29 15:12 38.29010 28.65692 27341 ft 421 kts 179°
2026-04-29 15:12 38.27072 28.65851 27172 ft 420 kts 179°
2026-04-29 15:12 38.23181 28.66170 26824 ft 418 kts 179°
2026-04-29 15:12 38.20286 28.66408 26564 ft 416 kts 179°
2026-04-29 15:13 38.17401 28.66645 26304 ft 415 kts 179°
2026-04-29 15:13 38.14549 28.66880 26065 ft 413 kts 179°
2026-04-29 15:13 38.11665 28.67117 25817 ft 411 kts 179°
2026-04-29 15:13 38.08816 28.67350 25564 ft 410 kts 179°
2026-04-29 15:14 38.05992 28.67579 25322 ft 408 kts 179°
2026-04-29 15:14 38.03146 28.67809 25080 ft 407 kts 179°
2026-04-29 15:14 38.00327 28.68035 24832 ft 405 kts 179°
2026-04-29 15:14 37.97535 28.68260 24513 ft 399 kts 179°
2026-04-29 15:15 37.95411 28.68435 24157 ft 396 kts 179°
2026-04-29 15:15 37.92673 28.68662 23696 ft 393 kts 179°
2026-04-29 15:15 37.89952 28.68885 23172 ft 390 kts 179°
2026-04-29 15:15 37.87267 28.68670 22553 ft 384 kts 195°
2026-04-29 15:16 37.84800 28.67508 22013 ft 377 kts 212°
2026-04-29 15:16 37.82561 28.65814 21476 ft 374 kts 213°
2026-04-29 15:16 37.80348 28.64102 20973 ft 372 kts 214°
2026-04-29 15:16 37.78152 28.62394 20479 ft 369 kts 213°
2026-04-29 15:17 37.75972 28.60694 20007 ft 367 kts 214°
2026-04-29 15:17 37.73806 28.59009 19531 ft 365 kts 213°
2026-04-29 15:17 37.71653 28.57340 19079 ft 362 kts 213°
2026-04-29 15:17 37.70202 28.56219 18781 ft 361 kts 213°
2026-04-29 15:18 37.68067 28.54572 18349 ft 358 kts 213°
2026-04-29 15:18 37.65258 28.52410 17708 ft 356 kts 213°
2026-04-29 15:18 37.63150 28.50788 17220 ft 353 kts 213°
2026-04-29 15:18 37.61060 28.49179 16771 ft 351 kts 213°
2026-04-29 15:19 37.58982 28.47579 16303 ft 349 kts 213°
2026-04-29 15:19 37.56916 28.45989 15826 ft 347 kts 213°
2026-04-29 15:19 37.54869 28.44416 15557 ft 340 kts 213°
2026-04-29 15:19 37.52876 28.42885 15299 ft 332 kts 213°
2026-04-29 15:20 37.50909 28.41378 14923 ft 330 kts 213°
2026-04-29 15:20 37.48951 28.39879 14543 ft 328 kts 213°
2026-04-29 15:20 37.47000 28.38383 14104 ft 328 kts 213°
2026-04-29 15:20 37.45037 28.36872 13526 ft 333 kts 213°
2026-04-29 15:21 37.43090 28.35378 13365 ft 323 kts 213°
2026-04-29 15:21 37.41199 28.33933 13238 ft 312 kts 213°
2026-04-29 15:21 37.39377 28.32542 12888 ft 302 kts 213°
2026-04-29 15:21 37.37597 28.31181 12282 ft 298 kts 212°
2026-04-29 15:22 37.35832 28.29829 11704 ft 297 kts 212°
2026-04-29 15:22 37.34073 28.28483 11376 ft 294 kts 212°
2026-04-29 15:22 37.32329 28.27150 11055 ft 292 kts 212°
2026-04-29 15:22 37.30595 28.25827 10745 ft 290 kts 212°
2026-04-29 15:23 37.28901 28.24538 10568 ft 282 kts 212°
2026-04-29 15:23 37.27236 28.23271 10285 ft 278 kts 211°
2026-04-29 15:23 37.25599 28.22024 10100 ft 271 kts 211°
2026-04-29 15:23 37.24541 28.21218 9945 ft 267 kts 211°
2026-04-29 15:24 37.22451 28.19626 9674 ft 257 kts 211°
2026-04-29 15:24 37.21449 28.18865 9574 ft 251 kts 211°
2026-04-29 15:24 37.19979 28.17746 9361 ft 244 kts 211°
2026-04-29 15:24 37.18526 28.16638 8954 ft 247 kts 211°
2026-04-29 15:25 37.17038 28.15504 8372 ft 256 kts 212°
2026-04-29 15:25 37.15537 28.14233 7765 ft 262 kts 226°
2026-04-29 15:25 37.14618 28.12278 7111 ft 264 kts 259°
2026-04-29 15:25 37.14648 28.10062 6915 ft 251 kts 285°
2026-04-29 15:26 37.15124 28.07960 6635 ft 250 kts 288°
2026-04-29 15:26 37.15617 28.05905 6398 ft 244 kts 289°
2026-04-29 15:26 37.16106 28.03906 6141 ft 233 kts 289°
2026-04-29 15:26 37.16569 28.02013 5938 ft 222 kts 289°
2026-04-29 15:27 37.17016 28.00175 5759 ft 219 kts 288°
2026-04-29 15:27 37.17456 27.98359 5562 ft 217 kts 288°
2026-04-29 15:27 37.17891 27.96563 5364 ft 214 kts 288°
2026-04-29 15:27 37.18325 27.94766 5186 ft 215 kts 289°